| time (UTC) | temp F | wind direction | speed MPH | gust MPH | rain 1hr in | rain 24hr in | rain mn in | humidity % | barometer mb |
| 20260508015128 | 46 | 65 | 2.0 | 2.0 | 0.00 | 0.00 | 0.00 | 72 | 1006.0 |
| 20260508014624 | 46 | 55 | 2.0 | 2.0 | 0.00 | 0.00 | 0.00 | 70 | 1006.0 |
| 20260508014120 | 46 | 56 | 2.0 | 2.0 | 0.00 | 0.00 | 0.00 | 71 | 1006.0 |
| 20260508013617 | 46 | 54 | 2.0 | 2.0 | 0.00 | 0.00 | 0.00 | 69 | 1005.8 |
| 20260508013114 | 46 | 66 | 0.0 | 2.0 | 0.00 | 0.00 | 0.00 | 69 | 1005.8 |
| 20260508013057 | 48 | 12 | 0.0 | 0.0 | 0.00 | 0.00 | 0.00 | 66 | 1004.7 |
| 20260508012611 | 46 | 86 | 0.0 | 2.0 | 0.00 | 0.00 | 0.00 | 67 | 1005.9 |
| 20260508012108 | 46 | 57 | 1.0 | 3.0 | 0.00 | 0.00 | 0.00 | 66 | 1005.7 |
| 20260508011607 | 47 | 70 | 2.0 | 3.0 | 0.00 | 0.00 | 0.00 | 65 | 1005.7 |
| 20260508011556 | 49 | 12 | 0.0 | 0.0 | 0.00 | 0.00 | 0.00 | 62 | 1004.7 |
| 20260508011104 | 47 | 58 | 2.0 | 2.0 | 0.00 | 0.00 | 0.00 | 64 | 1005.6 |
| 20260508010600 | 47 | 61 | 2.0 | 3.0 | 0.00 | 0.00 | 0.00 | 63 | 1005.5 |
| 20260508010058 | 48 | 49 | 2.0 | 2.0 | 0.00 | 0.00 | 0.00 | 61 | 1005.4 |
| 20260508010056 | 50 | 12 | 0.0 | 0.0 | 0.00 | 0.00 | 0.00 | 59 | 1004.6 |
| 20260508005554 | 48 | 49 | 3.0 | 3.0 | 0.00 | 0.00 | 0.00 | 60 | 1005.4 |
| 20260508005051 | 48 | 53 | 1.0 | 2.0 | 0.00 | 0.00 | 0.00 | 58 | 1005.4 |
| 20260508004547 | 49 | 65 | 2.0 | 2.0 | 0.00 | 0.00 | 0.00 | 59 | 1005.5 |
| 20260508004044 | 49 | 53 | 2.0 | 2.0 | 0.00 | 0.00 | 0.00 | 57 | 1005.1 |
| 20260508003540 | 49 | 62 | 2.0 | 2.0 | 0.00 | 0.00 | 0.00 | 54 | 1005.3 |
| 20260508003058 | 51 | 12 | 0.0 | 1.0 | 0.00 | 0.00 | 0.00 | 55 | 1004.2 |
| 20260508003038 | 50 | 55 | 2.0 | 2.0 | 0.00 | 0.00 | 0.00 | 56 | 1005.2 |
| 20260508002534 | 50 | 60 | 1.0 | 2.0 | 0.00 | 0.00 | 0.00 | 53 | 1005.1 |
| 20260508002031 | 50 | 32 | 0.0 | 2.0 | 0.00 | 0.00 | 0.00 | 52 | 1005.2 |
| 20260508001556 | 53 | 12 | 0.0 | 1.0 | 0.00 | 0.00 | 0.00 | 49 | 1004.2 |
| 20260508001527 | 51 | 63 | 1.0 | 2.0 | 0.00 | 0.00 | 0.00 | 52 | 1004.9 |
| 20260508001023 | 51 | 61 | 1.0 | 2.0 | 0.00 | 0.00 | 0.00 | 51 | 1005.3 |
| 20260508000519 | 52 | 62 | 1.0 | 2.0 | 0.00 | 0.00 | 0.00 | 52 | 1005.1 |
| 20260508000056 | 54 | 12 | 0.0 | 1.0 | 0.00 | 0.00 | 0.00 | 45 | 1004.2 |
| 20260508000017 | 52 | 70 | 0.0 | 3.0 | 0.00 | 0.00 | 0.00 | 48 | 1004.9 |
| 20260507235513 | 53 | 69 | 0.0 | 2.0 | 0.00 | 0.00 | 0.00 | 46 | 1004.8 |
| 20260507235011 | 53 | 68 | 1.0 | 2.0 | 0.00 | 0.00 | 0.00 | 45 | 1005.0 |
| 20260507234556 | 54 | 12 | 0.0 | 1.0 | 0.00 | 0.00 | 0.00 | 45 | 1003.8 |
| 20260507234507 | 53 | 53 | 2.0 | 2.0 | 0.00 | 0.00 | 0.00 | 46 | 1004.8 |
| 20260507234004 | 54 | 53 | 1.0 | 2.0 | 0.00 | 0.00 | 0.00 | 44 | 1004.8 |
| 20260507233500 | 54 | 34 | 1.0 | 2.0 | 0.00 | 0.00 | 0.00 | 43 | 1004.8 |
| 20260507233056 | 55 | 12 | 0.0 | 2.0 | 0.00 | 0.00 | 0.00 | 43 | 1003.7 |
| 20260507232959 | 54 | 42 | 2.0 | 2.0 | 0.00 | 0.00 | 0.00 | 43 | 1004.9 |
| 20260507232455 | 54 | 66 | 2.0 | 2.0 | 0.00 | 0.00 | 0.00 | 43 | 1004.7 |
| 20260507231953 | 54 | 46 | 1.0 | 2.0 | 0.00 | 0.00 | 0.00 | 44 | 1004.7 |
| 20260507231556 | 55 | 28 | 0.0 | 1.0 | 0.00 | 0.00 | 0.00 | 41 | 1003.7 |
| 20260507231448 | 54 | 59 | 3.0 | 4.0 | 0.00 | 0.00 | 0.00 | 42 | 1004.7 |
| 20260507230946 | 55 | 60 | 2.0 | 3.0 | 0.00 | 0.00 | 0.00 | 41 | 1004.5 |
| 20260507230443 | 55 | 66 | 2.0 | 3.0 | 0.00 | 0.00 | 0.00 | 41 | 1004.8 |
| 20260507230055 | 55 | 355 | 0.0 | 2.0 | 0.00 | 0.00 | 0.00 | 40 | 1004.0 |
| 20260507225938 | 55 | 72 | 2.0 | 3.0 | 0.00 | 0.00 | 0.00 | 41 | 1004.9 |
| 20260507225434 | 55 | 77 | 2.0 | 3.0 | 0.00 | 0.00 | 0.00 | 40 | 1004.7 |
| 20260507224931 | 55 | 78 | 2.0 | 3.0 | 0.00 | 0.00 | 0.00 | 38 | 1004.7 |
| 20260507224556 | 56 | 33 | 1.0 | 2.0 | 0.00 | 0.00 | 0.00 | 38 | 1003.9 |
| 20260507224426 | 55 | 41 | 3.0 | 4.0 | 0.00 | 0.00 | 0.00 | 40 | 1004.7 |
| 20260507223924 | 55 | 57 | 0.0 | 2.0 | 0.00 | 0.00 | 0.00 | 41 | 1004.7 |
| 20260507223419 | 55 | 58 | 2.0 | 2.0 | 0.00 | 0.00 | 0.00 | 40 | 1004.7 |
| 20260507223056 | 56 | 75 | 0.0 | 1.0 | 0.00 | 0.00 | 0.00 | 41 | 1003.8 |
| 20260507222917 | 56 | 63 | 2.0 | 3.0 | 0.00 | 0.00 | 0.00 | 40 | 1004.7 |
| 20260507222413 | 56 | 42 | 2.0 | 3.0 | 0.00 | 0.00 | 0.00 | 39 | 1004.6 |
| 20260507221910 | 56 | 84 | 2.0 | 3.0 | 0.00 | 0.00 | 0.00 | 38 | 1004.8 |
| 20260507221407 | 56 | 66 | 2.0 | 3.0 | 0.00 | 0.00 | 0.00 | 39 | 1004.7 |
| 20260507220902 | 56 | 48 | 2.0 | 3.0 | 0.00 | 0.00 | 0.00 | 38 | 1004.5 |
| 20260507220401 | 56 | 75 | 2.0 | 2.0 | 0.00 | 0.00 | 0.00 | 40 | 1004.6 |
| 20260507220056 | 57 | 229 | 0.0 | 2.0 | 0.00 | 0.00 | 0.00 | 43 | 1003.7 |
| 20260507215857 | 56 | 53 | 2.0 | 3.0 | 0.00 | 0.00 | 0.00 | 42 | 1004.3 |
| 20260507215354 | 57 | 283 | 0.0 | 1.0 | 0.00 | 0.00 | 0.00 | 41 | 1004.5 |
| 20260507214851 | 56 | 63 | 1.0 | 2.0 | 0.00 | 0.00 | 0.00 | 42 | 1004.6 |
| 20260507214556 | 57 | 229 | 0.0 | 3.0 | 0.00 | 0.00 | 0.00 | 43 | 1003.8 |
| 20260507214349 | 57 | 65 | 0.0 | 2.0 | 0.00 | 0.00 | 0.00 | 39 | 1004.9 |
| 20260507213844 | 57 | 223 | 2.0 | 2.0 | 0.00 | 0.00 | 0.00 | 37 | 1004.7 |
| 20260507213341 | 57 | 52 | 2.0 | 2.0 | 0.00 | 0.00 | 0.00 | 43 | 1004.8 |
| 20260507212837 | 57 | 85 | 2.0 | 4.0 | 0.00 | 0.00 | 0.00 | 38 | 1004.9 |
| 20260507212333 | 57 | 82 | 2.0 | 2.0 | 0.00 | 0.00 | 0.00 | 43 | 1004.8 |
| 20260507211830 | 57 | 269 | 0.0 | 3.0 | 0.00 | 0.00 | 0.00 | 40 | 1004.4 |
| 20260507211556 | 57 | 237 | 2.0 | 5.0 | 0.00 | 0.00 | 0.00 | 43 | 1003.8 |
| 20260507211327 | 57 | 228 | 2.0 | 3.0 | 0.00 | 0.00 | 0.00 | 40 | 1004.7 |
| 20260507210824 | 57 | 84 | 3.0 | 4.0 | 0.00 | 0.00 | 0.00 | 36 | 1004.8 |
| 20260507210321 | 57 | 32 | 0.0 | 6.0 | 0.00 | 0.00 | 0.00 | 39 | 1004.8 |
| 20260507210057 | 57 | 69 | 1.0 | 3.0 | 0.00 | 0.01 | 0.00 | 36 | 1003.7 |
| 20260507205817 | 57 | 74 | 3.0 | 4.0 | 0.00 | 0.00 | 0.00 | 39 | 1004.8 |
| 20260507205314 | 56 | 38 | 1.0 | 3.0 | 0.00 | 0.00 | 0.00 | 43 | 1004.7 |
| 20260507204810 | 57 | 61 | 1.0 | 4.0 | 0.00 | 0.00 | 0.00 | 41 | 1004.6 |
| 20260507204557 | 57 | 15 | 0.0 | 3.0 | 0.00 | 0.01 | 0.00 | 37 | 1003.7 |
| 20260507204308 | 57 | 62 | 0.0 | 3.0 | 0.00 | 0.00 | 0.00 | 40 | 1004.6 |
| 20260507203806 | 57 | 73 | 3.0 | 4.0 | 0.00 | 0.00 | 0.00 | 38 | 1004.6 |
| 20260507203303 | 57 | 29 | 1.0 | 2.0 | 0.00 | 0.00 | 0.00 | 39 | 1004.6 |
| 20260507203056 | 58 | 128 | 1.0 | 3.0 | 0.00 | 0.02 | 0.00 | 39 | 1003.7 |
| 20260507202759 | 57 | 53 | 1.0 | 2.0 | 0.00 | 0.00 | 0.00 | 41 | 1004.8 |
| 20260507202255 | 58 | 256 | 0.0 | 3.0 | 0.00 | 0.00 | 0.00 | 41 | 1004.8 |
| 20260507201750 | 58 | 75 | 2.0 | 3.0 | 0.00 | 0.00 | 0.00 | 38 | 1004.7 |
| 20260507201556 | 57 | 168 | 0.0 | 3.0 | 0.00 | 0.04 | 0.00 | 38 | 1003.8 |
| 20260507201247 | 57 | 54 | 1.0 | 1.0 | 0.00 | 0.00 | 0.00 | 44 | 1004.8 |
| 20260507200743 | 58 | 229 | 2.0 | 2.0 | 0.00 | 0.00 | 0.00 | 44 | 1004.7 |
| 20260507200239 | 58 | 77 | 2.0 | 3.0 | 0.00 | 0.00 | 0.00 | 38 | 1004.9 |
| 20260507200057 | 57 | 292 | 1.0 | 2.0 | 0.00 | 0.05 | 0.00 | 39 | 1004.0 |
| 20260507195736 | 58 | 89 | 0.0 | 3.0 | 0.00 | 0.00 | 0.00 | 40 | 1004.9 |
| 20260507195233 | 57 | 70 | 2.0 | 3.0 | 0.00 | 0.00 | 0.00 | 38 | 1005.1 |
| 20260507194731 | 57 | 79 | 2.0 | 3.0 | 0.00 | 0.00 | 0.00 | 41 | 1004.8 |
| 20260507194557 | 56 | 14 | 1.0 | 3.0 | 0.00 | 0.07 | 0.00 | 42 | 1004.1 |
| 20260507194226 | 56 | 55 | 2.0 | 2.0 | 0.00 | 0.00 | 0.00 | 46 | 1005.0 |
| 20260507193723 | 55 | 221 | 2.0 | 2.0 | 0.00 | 0.00 | 0.00 | 42 | 1005.1 |
| 20260507193220 | 55 | 103 | 1.0 | 2.0 | 0.00 | 0.00 | 0.00 | 38 | 1004.9 |
| 20260507193056 | 57 | 220 | 1.0 | 3.0 | 0.00 | 0.07 | 0.00 | 39 | 1004.2 |
| 20260507192716 | 57 | 197 | 0.0 | 2.0 | 0.00 | 0.00 | 0.00 | 40 | 1005.3 |
| 20260507192213 | 57 | 60 | 0.0 | 2.0 | 0.00 | 0.00 | 0.00 | 38 | 1005.2 |
| 20260507191708 | 57 | 60 | 0.0 | 2.0 | 0.00 | 0.00 | 0.00 | 41 | 1005.3 |
| 20260507191556 | 57 | 51 | 0.0 | 3.0 | 0.00 | 0.07 | 0.00 | 41 | 1004.4 |
| 20260507191206 | 57 | 52 | 1.0 | 4.0 | 0.00 | 0.00 | 0.00 | 40 | 1005.5 |
| 20260507190703 | 56 | 43 | 2.0 | 5.0 | 0.00 | 0.00 | 0.00 | 41 | 1005.5 |
| 20260507190202 | 56 | 43 | 4.0 | 5.0 | 0.00 | 0.00 | 0.00 | 42 | 1005.4 |
| 20260507185659 | 56 | 66 | 2.0 | 3.0 | 0.00 | 0.00 | 0.00 | 41 | 1005.4 |
| 20260507185156 | 56 | 52 | 2.0 | 2.0 | 0.00 | 0.00 | 0.00 | 43 | 1005.6 |
| 20260507184654 | 57 | 50 | 2.0 | 3.0 | 0.00 | 0.00 | 0.00 | 38 | 1005.5 |
| 20260507184555 | 57 | 5 | 0.0 | 3.0 | 0.00 | 0.07 | 0.00 | 41 | 1004.7 |
| 20260507184151 | 57 | 71 | 2.0 | 4.0 | 0.00 | 0.00 | 0.00 | 37 | 1005.6 |
| 20260507183647 | 57 | 82 | 2.0 | 3.0 | 0.00 | 0.00 | 0.00 | 40 | 1005.8 |
| 20260507183145 | 57 | 78 | 1.0 | 2.0 | 0.00 | 0.00 | 0.00 | 38 | 1005.9 |
| 20260507183056 | 56 | 97 | 1.0 | 3.0 | 0.00 | 0.07 | 0.00 | 38 | 1004.8 |
| 20260507182642 | 57 | 50 | 2.0 | 3.0 | 0.00 | 0.00 | 0.00 | 39 | 1005.8 |
| 20260507182137 | 56 | 69 | 0.0 | 3.0 | 0.00 | 0.00 | 0.00 | 41 | 1005.8 |
| 20260507181634 | 57 | 83 | 1.0 | 3.0 | 0.00 | 0.00 | 0.00 | 40 | 1005.9 |
| 20260507181556 | 57 | 126 | 1.0 | 6.0 | 0.00 | 0.07 | 0.00 | 39 | 1005.1 |
| 20260507181130 | 57 | 252 | 1.0 | 2.0 | 0.00 | 0.00 | 0.00 | 41 | 1006.1 |
| 20260507180627 | 57 | 257 | 2.0 | 2.0 | 0.00 | 0.00 | 0.00 | 43 | 1006.1 |
| 20260507180124 | 57 | 37 | 2.0 | 5.0 | 0.00 | 0.00 | 0.00 | 37 | 1006.2 |
| 20260507180055 | 57 | 134 | 1.0 | 6.0 | 0.00 | 0.07 | 0.00 | 39 | 1005.2 |
| 20260507175620 | 57 | 44 | 2.0 | 3.0 | 0.00 | 0.00 | 0.00 | 39 | 1006.1 |
| 20260507175117 | 58 | 73 | 1.0 | 4.0 | 0.00 | 0.00 | 0.00 | 39 | 1006.2 |
| 20260507174614 | 60 | 53 | 0.0 | 3.0 | 0.00 | 0.00 | 0.00 | 35 | 1006.2 |
| 20260507174555 | 59 | 288 | 1.0 | 3.0 | 0.00 | 0.07 | 0.00 | 38 | 1005.1 |
| 20260507174112 | 60 | 67 | 2.0 | 3.0 | 0.00 | 0.00 | 0.00 | 38 | 1006.2 |
| 20260507173609 | 58 | 235 | 0.0 | 4.0 | 0.00 | 0.00 | 0.00 | 45 | 1006.1 |
| 20260507173106 | 57 | 246 | 2.0 | 5.0 | 0.00 | 0.00 | 0.00 | 40 | 1006.3 |
| 20260507173056 | 58 | 238 | 2.0 | 9.0 | 0.00 | 0.07 | 0.00 | 42 | 1005.2 |
| 20260507172602 | 58 | 307 | 0.0 | 6.0 | 0.00 | 0.00 | 0.00 | 44 | 1006.3 |
| 20260507172059 | 59 | 67 | 2.0 | 3.0 | 0.00 | 0.00 | 0.00 | 39 | 1006.7 |
| 20260507171556 | 58 | 240 | 2.0 | 3.0 | 0.00 | 0.07 | 0.00 | 42 | 1005.4 |
| 20260507171554 | 58 | 218 | 1.0 | 6.0 | 0.00 | 0.00 | 0.00 | 44 | 1006.4 |
| 20260507171052 | 58 | 89 | 2.0 | 4.0 | 0.00 | 0.00 | 0.00 | 39 | 1006.4 |
| 20260507170548 | 57 | 59 | 4.0 | 4.0 | 0.00 | 0.00 | 0.00 | 36 | 1006.8 |
| 20260507170045 | 58 | 33 | 3.0 | 4.0 | 0.00 | 0.00 | 0.00 | 44 | 1006.7 |
| 20260507165541 | 57 | 22 | 2.0 | 2.0 | 0.00 | 0.00 | 0.00 | 40 | 1006.9 |
| 20260507165038 | 57 | 43 | 2.0 | 2.0 | 0.00 | 0.00 | 0.00 | 43 | 1007.0 |
| 20260507164556 | 58 | 154 | 1.0 | 5.0 | 0.00 | 0.07 | 0.00 | 36 | 1005.9 |
| 20260507164534 | 57 | 92 | 2.0 | 5.0 | 0.00 | 0.00 | 0.00 | 35 | 1007.0 |
| 20260507164031 | 59 | 247 | 2.0 | 2.0 | 0.00 | 0.00 | 0.00 | 41 | 1006.8 |
| 20260507163528 | 58 | 78 | 2.0 | 2.0 | 0.00 | 0.00 | 0.00 | 41 | 1006.8 |
| 20260507163058 | 57 | 210 | 1.0 | 3.0 | 0.00 | 0.07 | 0.00 | 41 | 1006.0 |
| 20260507163027 | 58 | 166 | 1.0 | 3.0 | 0.00 | 0.00 | 0.00 | 43 | 1007.0 |
| 20260507162526 | 58 | 53 | 1.0 | 5.0 | 0.00 | 0.00 | 0.00 | 36 | 1007.1 |
| 20260507162024 | 57 | 86 | 0.0 | 4.0 | 0.00 | 0.00 | 0.00 | 46 | 1007.1 |
| 20260507161556 | 57 | 235 | 1.0 | 3.0 | 0.00 | 0.07 | 0.00 | 45 | 1006.3 |
| 20260507161520 | 57 | 359 | 1.0 | 5.0 | 0.00 | 0.00 | 0.00 | 44 | 1007.4 |
| 20260507161017 | 58 | 87 | 1.0 | 3.0 | 0.00 | 0.00 | 0.00 | 40 | 1007.4 |
| 20260507160513 | 57 | 63 | 3.0 | 4.0 | 0.00 | 0.00 | 0.00 | 41 | 1007.5 |
| 20260507160057 | 56 | 227 | 4.0 | 6.0 | 0.00 | 0.07 | 0.00 | 49 | 1006.6 |
| 20260507160010 | 56 | 245 | 5.0 | 9.0 | 0.00 | 0.00 | 0.00 | 45 | 1007.5 |
| 20260507155505 | 56 | 60 | 0.0 | 2.0 | 0.00 | 0.00 | 0.00 | 51 | 1007.6 |
| 20260507155003 | 56 | 92 | 3.0 | 4.0 | 0.00 | 0.00 | 0.00 | 41 | 1007.9 |
| 20260507154459 | 56 | 65 | 2.0 | 3.0 | 0.00 | 0.00 | 0.00 | 45 | 1007.9 |
| 20260507153956 | 56 | 257 | 1.0 | 4.0 | 0.00 | 0.00 | 0.00 | 46 | 1007.9 |
| 20260507153453 | 56 | 4 | 1.0 | 5.0 | 0.00 | 0.00 | 0.00 | 42 | 1007.7 |
| 20260507153056 | 56 | 252 | 2.0 | 5.0 | 0.00 | 0.08 | 0.00 | 45 | 1007.0 |
| 20260507152949 | 56 | 234 | 5.0 | 5.0 | 0.00 | 0.00 | 0.00 | 54 | 1008.1 |
| 20260507152445 | 56 | 259 | 2.0 | 4.0 | 0.00 | 0.00 | 0.00 | 48 | 1008.2 |
| 20260507151941 | 55 | 13 | 2.0 | 4.0 | 0.00 | 0.00 | 0.00 | 50 | 1008.1 |
| 20260507151555 | 55 | 184 | 1.0 | 3.0 | 0.00 | 0.09 | 0.00 | 45 | 1007.2 |
| 20260507151437 | 55 | 41 | 2.0 | 4.0 | 0.00 | 0.00 | 0.00 | 43 | 1008.2 |
| 20260507150934 | 56 | 235 | 1.0 | 4.0 | 0.00 | 0.00 | 0.00 | 48 | 1008.4 |
| 20260507150432 | 56 | 46 | 6.0 | 6.0 | 0.00 | 0.00 | 0.00 | 42 | 1008.3 |
| 20260507150055 | 55 | 170 | 1.0 | 3.0 | 0.00 | 0.10 | 0.00 | 48 | 1007.4 |
| 20260507145928 | 55 | 64 | 0.0 | 4.0 | 0.00 | 0.00 | 0.00 | 48 | 1008.3 |
| 20260507145423 | 55 | 245 | 2.0 | 2.0 | 0.00 | 0.00 | 0.00 | 47 | 1008.6 |
| 20260507144921 | 55 | 68 | 2.0 | 4.0 | 0.00 | 0.00 | 0.00 | 44 | 1008.7 |
| 20260507144418 | 54 | 53 | 0.0 | 3.0 | 0.00 | 0.00 | 0.00 | 50 | 1008.5 |
| 20260507143915 | 54 | 36 | 2.0 | 3.0 | 0.00 | 0.00 | 0.00 | 48 | 1008.6 |
| 20260507143412 | 55 | 61 | 2.0 | 3.0 | 0.00 | 0.00 | 0.00 | 46 | 1008.4 |
| 20260507143057 | 53 | 59 | 1.0 | 3.0 | 0.00 | 0.11 | 0.00 | 51 | 1007.6 |
| 20260507142908 | 55 | 283 | 2.0 | 3.0 | 0.00 | 0.00 | 0.00 | 52 | 1008.6 |
| 20260507142404 | 53 | 147 | 3.0 | 3.0 | 0.00 | 0.00 | 0.00 | 46 | 1008.6 |
| 20260507141902 | 53 | 129 | 0.0 | 2.0 | 0.00 | 0.00 | 0.00 | 51 | 1008.5 |
| 20260507141556 | 53 | 215 | 1.0 | 2.0 | 0.00 | 0.11 | 0.00 | 49 | 1007.5 |
| 20260507141358 | 53 | 79 | 3.0 | 3.0 | 0.00 | 0.00 | 0.00 | 43 | 1008.5 |
| 20260507140854 | 54 | 131 | 1.0 | 4.0 | 0.00 | 0.00 | 0.00 | 42 | 1008.5 |
| 20260507140351 | 53 | 46 | 2.0 | 3.0 | 0.00 | 0.00 | 0.00 | 48 | 1008.6 |
| 20260507140056 | 52 | 114 | 1.0 | 3.0 | 0.00 | 0.11 | 0.00 | 51 | 1007.6 |
| 20260507135849 | 54 | 296 | 0.0 | 2.0 | 0.00 | 0.00 | 0.00 | 49 | 1008.5 |
| 20260507135345 | 53 | 107 | 2.0 | 4.0 | 0.00 | 0.00 | 0.00 | 48 | 1008.8 |
| 20260507134843 | 54 | 62 | 2.0 | 4.0 | 0.00 | 0.00 | 0.00 | 48 | 1008.9 |
| 20260507134339 | 53 | 88 | 3.0 | 3.0 | 0.00 | 0.00 | 0.00 | 50 | 1008.9 |
| 20260507133835 | 51 | 95 | 3.0 | 5.0 | 0.00 | 0.00 | 0.00 | 49 | 1009.1 |
| 20260507133331 | 51 | 65 | 1.0 | 2.0 | 0.00 | 0.00 | 0.00 | 57 | 1008.9 |
| 20260507133057 | 49 | 231 | 1.0 | 3.0 | 0.00 | 0.15 | 0.00 | 61 | 1008.0 |
| 20260507132830 | 50 | 47 | 1.0 | 3.0 | 0.00 | 0.00 | 0.00 | 60 | 1008.9 |
| 20260507132325 | 50 | 213 | 1.0 | 2.0 | 0.00 | 0.00 | 0.00 | 57 | 1008.9 |
| 20260507131823 | 49 | 126 | 0.0 | 3.0 | 0.00 | 0.00 | 0.00 | 57 | 1008.9 |
| 20260507131555 | 48 | 151 | 1.0 | 3.0 | 0.00 | 0.18 | 0.00 | 62 | 1008.1 |
| 20260507131319 | 48 | 168 | 1.0 | 3.0 | 0.00 | 0.00 | 0.00 | 61 | 1008.8 |
| 20260507130816 | 50 | 255 | 1.0 | 3.0 | 0.00 | 0.00 | 0.00 | 58 | 1009.0 |
| 20260507130314 | 48 | 69 | 1.0 | 3.0 | 0.00 | 0.00 | 0.00 | 61 | 1009.1 |
| 20260507130056 | 48 | 219 | 1.0 | 3.0 | 0.00 | 0.20 | 0.00 | 64 | 1008.1 |
| 20260507125813 | 50 | 202 | 2.0 | 2.0 | 0.00 | 0.00 | 0.00 | 60 | 1008.9 |
| 20260507125310 | 50 | 63 | 3.0 | 3.0 | 0.00 | 0.00 | 0.00 | 59 | 1009.1 |
| 20260507124807 | 48 | 89 | 4.0 | 4.0 | 0.00 | 0.00 | 0.00 | 61 | 1009.1 |
| 20260507124556 | 47 | 216 | 1.0 | 3.0 | 0.00 | 0.21 | 0.00 | 64 | 1008.2 |
| 20260507124303 | 49 | 44 | 1.0 | 3.0 | 0.00 | 0.00 | 0.00 | 56 | 1009.1 |
| 20260507123802 | 48 | 88 | 3.0 | 3.0 | 0.00 | 0.00 | 0.00 | 60 | 1009.2 |
| 20260507123258 | 48 | 47 | 0.0 | 2.0 | 0.00 | 0.00 | 0.00 | 60 | 1009.1 |
| 20260507123057 | 46 | 261 | 0.0 | 2.0 | 0.00 | 0.22 | 0.00 | 66 | 1008.1 |
| 20260507122754 | 48 | 116 | 1.0 | 3.0 | 0.00 | 0.00 | 0.00 | 62 | 1009.0 |
| 20260507122250 | 47 | 70 | 2.0 | 2.0 | 0.00 | 0.00 | 0.00 | 60 | 1008.8 |
| 20260507121746 | 48 | 77 | 0.0 | 2.0 | 0.00 | 0.00 | 0.00 | 63 | 1008.9 |
| 20260507121556 | 45 | 150 | 0.0 | 3.0 | 0.00 | 0.23 | 0.00 | 70 | 1008.1 |
| 20260507121242 | 48 | 53 | 2.0 | 3.0 | 0.00 | 0.00 | 0.00 | 63 | 1008.7 |
| 20260507120738 | 47 | 78 | 2.0 | 4.0 | 0.00 | 0.00 | 0.00 | 63 | 1008.8 |
| 20260507120235 | 47 | 63 | 3.0 | 3.0 | 0.00 | 0.00 | 0.00 | 64 | 1008.7 |
| 20260507115731 | 47 | 63 | 2.0 | 2.0 | 0.00 | 0.00 | 0.00 | 65 | 1009.1 |
| 20260507115227 | 46 | 86 | 3.0 | 3.0 | 0.00 | 0.00 | 0.00 | 66 | 1008.8 |
| 20260507114723 | 45 | 86 | 1.0 | 3.0 | 0.00 | 0.00 | 0.00 | 70 | 1008.9 |
| 20260507114221 | 46 | 132 | 2.0 | 3.0 | 0.00 | 0.00 | 0.00 | 69 | 1008.9 |
| 20260507113718 | 46 | 58 | 2.0 | 3.0 | 0.00 | 0.00 | 0.00 | 69 | 1009.0 |
| 20260507113215 | 46 | 46 | 2.0 | 4.0 | 0.00 | 0.00 | 0.00 | 70 | 1008.8 |
| 20260507112712 | 45 | 50 | 1.0 | 3.0 | 0.00 | 0.00 | 0.00 | 73 | 1008.6 |
| 20260507112209 | 43 | 75 | 2.0 | 4.0 | 0.00 | 0.00 | 0.00 | 75 | 1008.9 |
| 20260507111706 | 43 | 48 | 2.0 | 2.0 | 0.00 | 0.00 | 0.00 | 76 | 1008.7 |
| 20260507111203 | 42 | 57 | 3.0 | 3.0 | 0.00 | 0.00 | 0.00 | 83 | 1008.6 |
| 20260507110659 | 39 | 62 | 2.0 | 3.0 | 0.00 | 0.00 | 0.00 | 88 | 1008.4 |
| 20260507110156 | 38 | 61 | 2.0 | 3.0 | 0.00 | 0.00 | 0.00 | 89 | 1008.2 |
| 20260507110055 | 38 | 55 | 0.0 | 2.0 | 0.00 | 0.25 | 0.00 | 88 | 1007.7 |
| 20260507105653 | 38 | 50 | 3.0 | 3.0 | 0.00 | 0.00 | 0.00 | 90 | 1008.3 |
| 20260507105149 | 37 | 66 | 2.0 | 3.0 | 0.00 | 0.00 | 0.00 | 90 | 1008.5 |
| 20260507104646 | 37 | 48 | 2.0 | 3.0 | 0.00 | 0.00 | 0.00 | 90 | 1008.5 |
| 20260507104556 | 38 | 44 | 0.0 | 0.0 | 0.00 | 0.26 | 0.00 | 86 | 1007.8 |
| 20260507104142 | 37 | 62 | 2.0 | 3.0 | 0.00 | 0.00 | 0.00 | 89 | 1008.5 |
| 20260507103638 | 37 | 60 | 2.0 | 3.0 | 0.00 | 0.00 | 0.00 | 89 | 1008.4 |
| 20260507103136 | 37 | 62 | 2.0 | 2.0 | 0.00 | 0.00 | 0.00 | 89 | 1008.4 |
| 20260507103056 | 38 | 44 | 0.0 | 0.0 | 0.00 | 0.26 | 0.00 | 85 | 1007.7 |
| 20260507102632 | 37 | 54 | 2.0 | 3.0 | 0.00 | 0.00 | 0.00 | 89 | 1008.2 |
| 20260507102128 | 37 | 58 | 2.0 | 3.0 | 0.00 | 0.00 | 0.00 | 88 | 1008.3 |
| 20260507101624 | 37 | 69 | 2.0 | 3.0 | 0.00 | 0.00 | 0.00 | 87 | 1008.2 |
| 20260507101555 | 39 | 44 | 0.0 | 0.0 | 0.00 | 0.26 | 0.00 | 84 | 1007.6 |
| 20260507101120 | 37 | 46 | 1.0 | 3.0 | 0.00 | 0.00 | 0.00 | 86 | 1008.0 |
| 20260507100618 | 38 | 60 | 2.0 | 2.0 | 0.00 | 0.00 | 0.00 | 85 | 1008.2 |
| 20260507100116 | 38 | 50 | 2.0 | 3.0 | 0.00 | 0.00 | 0.00 | 84 | 1008.1 |
| 20260507100056 | 39 | 44 | 0.0 | 1.0 | 0.00 | 0.26 | 0.00 | 82 | 1007.4 |
| 20260507095613 | 38 | 53 | 2.0 | 3.0 | 0.00 | 0.00 | 0.00 | 83 | 1007.9 |
| 20260507095109 | 39 | 64 | 2.0 | 3.0 | 0.00 | 0.00 | 0.00 | 83 | 1008.1 |
| 20260507094606 | 39 | 70 | 2.0 | 3.0 | 0.00 | 0.00 | 0.00 | 82 | 1007.8 |
| 20260507094557 | 40 | 44 | 0.0 | 0.0 | 0.00 | 0.26 | 0.00 | 79 | 1007.4 |
| 20260507094103 | 39 | 48 | 2.0 | 2.0 | 0.00 | 0.00 | 0.00 | 80 | 1008.1 |
| 20260507093600 | 40 | 62 | 2.0 | 2.0 | 0.00 | 0.00 | 0.00 | 79 | 1008.1 |
| 20260507093059 | 40 | 76 | 2.0 | 3.0 | 0.00 | 0.00 | 0.00 | 78 | 1008.2 |
| 20260507093056 | 41 | 44 | 0.0 | 2.0 | 0.00 | 0.26 | 0.00 | 77 | 1007.2 |
| 20260507092555 | 40 | 67 | 2.0 | 3.0 | 0.00 | 0.00 | 0.00 | 78 | 1007.8 |
| 20260507092052 | 40 | 41 | 1.0 | 3.0 | 0.00 | 0.00 | 0.00 | 78 | 1007.8 |
| 20260507091556 | 41 | 121 | 0.0 | 2.0 | 0.00 | 0.26 | 0.00 | 78 | 1007.2 |
| 20260507091549 | 41 | 46 | 0.0 | 4.0 | 0.00 | 0.00 | 0.00 | 79 | 1008.0 |
| 20260507091045 | 41 | 75 | 1.0 | 4.0 | 0.00 | 0.00 | 0.00 | 81 | 1007.7 |
| 20260507090541 | 41 | 57 | 2.0 | 3.0 | 0.00 | 0.00 | 0.00 | 83 | 1007.8 |
| 20260507090057 | 42 | 81 | 0.0 | 1.0 | 0.00 | 0.26 | 0.00 | 81 | 1007.1 |
| 20260507090038 | 41 | 54 | 2.0 | 3.0 | 0.00 | 0.00 | 0.00 | 83 | 1008.0 |
| 20260507085535 | 41 | 64 | 3.0 | 3.0 | 0.00 | 0.00 | 0.00 | 83 | 1007.9 |
| 20260507085031 | 41 | 68 | 2.0 | 3.0 | 0.00 | 0.00 | 0.00 | 83 | 1007.8 |
| 20260507084556 | 43 | 81 | 0.0 | 0.0 | 0.00 | 0.26 | 0.00 | 82 | 1007.0 |
| 20260507084528 | 42 | 58 | 2.0 | 3.0 | 0.00 | 0.00 | 0.00 | 82 | 1007.6 |
| 20260507084025 | 42 | 61 | 2.0 | 3.0 | 0.00 | 0.00 | 0.00 | 82 | 1007.9 |
| 20260507083521 | 42 | 53 | 2.0 | 3.0 | 0.00 | 0.00 | 0.00 | 81 | 1007.7 |
| 20260507083056 | 43 | 81 | 0.0 | 1.0 | 0.00 | 0.26 | 0.00 | 81 | 1006.9 |
| 20260507083019 | 43 | 48 | 1.0 | 3.0 | 0.00 | 0.00 | 0.00 | 81 | 1007.7 |
| 20260507082514 | 43 | 42 | 0.0 | 2.0 | 0.00 | 0.00 | 0.00 | 81 | 1007.7 |
| 20260507082011 | 43 | 52 | 2.0 | 3.0 | 0.00 | 0.00 | 0.00 | 81 | 1007.8 |
| 20260507081556 | 44 | 355 | 1.0 | 3.0 | 0.00 | 0.26 | 0.00 | 81 | 1007.1 |
| 20260507081507 | 43 | 56 | 2.0 | 4.0 | 0.00 | 0.00 | 0.00 | 81 | 1007.9 |
| 20260507081004 | 44 | 37 | 3.0 | 3.0 | 0.00 | 0.00 | 0.00 | 83 | 1007.8 |
| 20260507080500 | 44 | 88 | 2.0 | 3.0 | 0.00 | 0.00 | 0.00 | 86 | 1008.1 |
| 20260507080056 | 44 | 180 | 0.0 | 1.0 | 0.00 | 0.26 | 0.00 | 88 | 1007.1 |
| 20260507075955 | 44 | 64 | 2.0 | 2.0 | 0.00 | 0.00 | 0.00 | 87 | 1008.0 |
| 20260507075452 | 44 | 30 | 0.0 | 2.0 | 0.00 | 0.00 | 0.00 | 88 | 1007.9 |
| 20260507074948 | 44 | 50 | 2.0 | 2.0 | 0.00 | 0.00 | 0.00 | 88 | 1007.9 |
| 20260507074555 | 44 | 180 | 0.0 | 0.0 | 0.00 | 0.26 | 0.00 | 88 | 1006.9 |
| 20260507074446 | 44 | 31 | 1.0 | 2.0 | 0.00 | 0.00 | 0.00 | 88 | 1007.8 |
| 20260507073944 | 44 | 324 | 0.0 | 3.0 | 0.00 | 0.00 | 0.00 | 88 | 1007.7 |
| 20260507073439 | 43 | 47 | 0.0 | 2.0 | 0.00 | 0.00 | 0.00 | 88 | 1007.7 |
| 20260507073056 | 43 | 180 | 0.0 | 1.0 | 0.00 | 0.26 | 0.00 | 89 | 1006.9 |
| 20260507072936 | 43 | 55 | 0.0 | 2.0 | 0.00 | 0.00 | 0.00 | 89 | 1007.9 |
| 20260507072434 | 43 | 62 | 1.0 | 2.0 | 0.00 | 0.00 | 0.00 | 89 | 1007.7 |
| 20260507071931 | 43 | 43 | 2.0 | 2.0 | 0.00 | 0.00 | 0.00 | 89 | 1007.8 |
| 20260507071428 | 43 | 38 | 1.0 | 2.0 | 0.00 | 0.00 | 0.00 | 89 | 1007.8 |
| 20260507070924 | 43 | 58 | 2.0 | 3.0 | 0.00 | 0.00 | 0.00 | 89 | 1007.8 |
| 20260507070422 | 43 | 45 | 1.0 | 2.0 | 0.00 | 0.00 | 0.00 | 89 | 1008.0 |
| 20260507065918 | 43 | 55 | 2.0 | 3.0 | 0.00 | 0.00 | 0.00 | 89 | 1007.7 |
| 20260507065416 | 43 | 68 | 1.0 | 3.0 | 0.00 | 0.00 | 0.00 | 90 | 1007.9 |
| 20260507064913 | 44 | 32 | 1.0 | 3.0 | 0.00 | 0.00 | 0.00 | 91 | 1008.0 |
| 20260507064556 | 44 | 180 | 0.0 | 2.0 | 0.00 | 0.26 | 0.00 | 91 | 1006.8 |
| 20260507064411 | 44 | 45 | 2.0 | 3.0 | 0.00 | 0.00 | 0.00 | 91 | 1007.9 |
| 20260507063908 | 44 | 20 | 2.0 | 3.0 | 0.00 | 0.00 | 0.00 | 92 | 1007.7 |
| 20260507063405 | 44 | 59 | 1.0 | 2.0 | 0.00 | 0.00 | 0.00 | 93 | 1007.6 |
| 20260507063056 | 45 | 128 | 0.0 | 1.0 | 0.00 | 0.26 | 0.00 | 93 | 1006.7 |
| 20260507062902 | 44 | 49 | 2.0 | 2.0 | 0.00 | 0.00 | 0.00 | 93 | 1007.9 |
| 20260507062359 | 44 | 53 | 2.0 | 2.0 | 0.00 | 0.00 | 0.00 | 94 | 1007.8 |
| 20260507061856 | 44 | 56 | 1.0 | 3.0 | 0.00 | 0.00 | 0.00 | 94 | 1007.5 |
| 20260507061556 | 45 | 128 | 0.0 | 1.0 | 0.00 | 0.26 | 0.00 | 94 | 1006.5 |
| 20260507061354 | 44 | 42 | 2.0 | 2.0 | 0.00 | 0.00 | 0.00 | 94 | 1007.7 |
| 20260507060853 | 44 | 52 | 0.0 | 2.0 | 0.00 | 0.00 | 0.00 | 95 | 1007.6 |
| 20260507060349 | 44 | 53 | 1.0 | 2.0 | 0.00 | 0.00 | 0.00 | 95 | 1007.5 |
| 20260507060056 | 45 | 128 | 0.0 | 1.0 | 0.00 | 0.26 | 0.00 | 95 | 1006.1 |
| 20260507055846 | 44 | 59 | 1.0 | 2.0 | 0.00 | 0.00 | 0.00 | 96 | 1007.2 |
| 20260507055341 | 44 | 54 | 0.0 | 2.0 | 0.00 | 0.00 | 0.00 | 96 | 1007.4 |
| 20260507054838 | 44 | 47 | 1.0 | 2.0 | 0.00 | 0.00 | 0.00 | 96 | 1007.1 |
| 20260507054556 | 45 | 128 | 0.0 | 1.0 | 0.00 | 0.26 | 0.00 | 95 | 1006.2 |
| 20260507054334 | 44 | 38 | 0.0 | 2.0 | 0.00 | 0.00 | 0.00 | 96 | 1007.1 |
| 20260507053831 | 44 | 46 | 2.0 | 3.0 | 0.00 | 0.00 | 0.00 | 96 | 1007.1 |
| 20260507053329 | 44 | 56 | 2.0 | 2.0 | 0.00 | 0.00 | 0.00 | 96 | 1007.2 |
| 20260507053057 | 44 | 128 | 0.0 | 1.0 | 0.00 | 0.26 | 0.00 | 95 | 1006.0 |
| 20260507052828 | 44 | 57 | 2.0 | 2.0 | 0.00 | 0.00 | 0.00 | 96 | 1007.3 |
| 20260507052324 | 44 | 48 | 0.0 | 2.0 | 0.00 | 0.00 | 0.00 | 96 | 1007.2 |
| 20260507051822 | 44 | 57 | 2.0 | 3.0 | 0.00 | 0.00 | 0.00 | 96 | 1007.3 |
| 20260507051555 | 44 | 128 | 0.0 | 0.0 | 0.00 | 0.26 | 0.00 | 95 | 1006.2 |
| 20260507051319 | 44 | 41 | 2.0 | 3.0 | 0.00 | 0.00 | 0.00 | 96 | 1007.1 |
| 20260507050816 | 44 | 55 | 2.0 | 3.0 | 0.00 | 0.00 | 0.00 | 96 | 1007.3 |
| 20260507050312 | 44 | 61 | 2.0 | 3.0 | 0.00 | 0.00 | 0.00 | 96 | 1006.9 |
| 20260507045809 | 44 | 58 | 2.0 | 2.0 | 0.00 | 0.00 | 0.00 | 96 | 1007.3 |
| 20260507045307 | 44 | 34 | 2.0 | 3.0 | 0.00 | 0.00 | 0.00 | 96 | 1007.1 |
| 20260507044803 | 43 | 68 | 2.0 | 3.0 | 0.00 | 0.00 | 0.00 | 96 | 1007.2 |
| 20260507044556 | 44 | 128 | 0.0 | 0.0 | 0.00 | 0.26 | 0.00 | 94 | 1006.2 |
| 20260507044259 | 43 | 57 | 2.0 | 3.0 | 0.00 | 0.00 | 0.00 | 96 | 1007.4 |
| 20260507043755 | 43 | 36 | 1.0 | 2.0 | 0.00 | 0.00 | 0.00 | 96 | 1007.2 |
| 20260507043252 | 43 | 51 | 3.0 | 3.0 | 0.00 | 0.00 | 0.00 | 96 | 1007.3 |
| 20260507043057 | 44 | 128 | 0.0 | 0.0 | 0.00 | 0.26 | 0.00 | 94 | 1006.3 |
| 20260507042748 | 43 | 50 | 2.0 | 3.0 | 0.00 | 0.00 | 0.00 | 96 | 1007.2 |
| 20260507042243 | 43 | 64 | 2.0 | 3.0 | 0.00 | 0.00 | 0.00 | 96 | 1007.4 |
| 20260507041742 | 43 | 49 | 2.0 | 3.0 | 0.00 | 0.00 | 0.00 | 96 | 1007.5 |
| 20260507041238 | 43 | 48 | 2.0 | 3.0 | 0.00 | 0.00 | 0.00 | 96 | 1007.5 |
| 20260507040735 | 43 | 46 | 3.0 | 3.0 | 0.00 | 0.00 | 0.00 | 95 | 1007.6 |
| 20260507040231 | 43 | 64 | 2.0 | 2.0 | 0.00 | 0.00 | 0.00 | 95 | 1007.7 |
| 20260507040056 | 44 | 128 | 0.0 | 0.0 | 0.00 | 0.26 | 0.00 | 92 | 1006.3 |
| 20260507035727 | 43 | 60 | 2.0 | 2.0 | 0.00 | 0.27 | 0.27 | 95 | 1007.4 |
| 20260507035222 | 43 | 50 | 2.0 | 3.0 | 0.00 | 0.27 | 0.27 | 95 | 1007.5 |
| 20260507034720 | 43 | 42 | 2.0 | 2.0 | 0.00 | 0.27 | 0.27 | 95 | 1007.3 |
| 20260507034556 | 44 | 128 | 0.0 | 1.0 | 0.00 | 0.26 | 0.26 | 92 | 1006.3 |
| 20260507034217 | 43 | 58 | 2.0 | 3.0 | 0.00 | 0.27 | 0.27 | 95 | 1007.2 |
| 20260507033716 | 43 | 46 | 2.0 | 3.0 | 0.00 | 0.27 | 0.27 | 94 | 1007.3 |
| 20260507033213 | 43 | 55 | 2.0 | 3.0 | 0.00 | 0.27 | 0.27 | 94 | 1007.4 |
| 20260507033056 | 44 | 128 | 0.0 | 0.0 | 0.00 | 0.26 | 0.26 | 91 | 1006.3 |
| 20260507032710 | 43 | 51 | 2.0 | 2.0 | 0.00 | 0.27 | 0.27 | 94 | 1007.4 |
| 20260507032206 | 43 | 66 | 1.0 | 2.0 | 0.00 | 0.27 | 0.27 | 94 | 1007.2 |
| 20260507031703 | 43 | 61 | 2.0 | 3.0 | 0.00 | 0.27 | 0.27 | 93 | 1006.9 |
| 20260507031159 | 44 | 53 | 2.0 | 3.0 | 0.00 | 0.27 | 0.27 | 93 | 1006.8 |
| 20260507030656 | 44 | 45 | 2.0 | 3.0 | 0.00 | 0.27 | 0.27 | 93 | 1007.1 |
| 20260507030154 | 44 | 58 | 2.0 | 3.0 | 0.00 | 0.27 | 0.27 | 92 | 1007.4 |
| 20260507030055 | 46 | 128 | 0.0 | 0.0 | 0.00 | 0.26 | 0.26 | 90 | 1006.4 |
| 20260507025651 | 44 | 60 | 2.0 | 3.0 | 0.00 | 0.27 | 0.27 | 92 | 1007.3 |
| 20260507025148 | 45 | 60 | 0.0 | 3.0 | 0.00 | 0.27 | 0.27 | 92 | 1007.2 |
| 20260507024646 | 45 | 51 | 2.0 | 3.0 | 0.00 | 0.27 | 0.27 | 91 | 1007.5 |
| 20260507024555 | 46 | 128 | 0.0 | 0.0 | 0.00 | 0.26 | 0.26 | 90 | 1006.4 |
| 20260507024143 | 45 | 45 | 2.0 | 3.0 | 0.00 | 0.27 | 0.27 | 91 | 1007.4 |
| 20260507023638 | 46 | 55 | 2.0 | 3.0 | 0.00 | 0.27 | 0.27 | 91 | 1007.6 |
| 20260507023136 | 46 | 53 | 2.0 | 2.0 | 0.00 | 0.27 | 0.27 | 91 | 1007.4 |
| 20260507023056 | 46 | 128 | 0.0 | 1.0 | 0.00 | 0.26 | 0.26 | 90 | 1006.3 |
| 20260507022633 | 46 | 60 | 2.0 | 3.0 | 0.00 | 0.27 | 0.27 | 91 | 1007.4 |
| 20260507022128 | 46 | 42 | 2.0 | 2.0 | 0.00 | 0.27 | 0.27 | 91 | 1007.8 |
| 20260507021625 | 46 | 65 | 2.0 | 3.0 | 0.00 | 0.27 | 0.27 | 91 | 1007.7 |
| 20260507021557 | 47 | 128 | 0.0 | 1.0 | 0.00 | 0.26 | 0.26 | 90 | 1006.6 |
| 20260507021120 | 46 | 60 | 2.0 | 3.0 | 0.00 | 0.27 | 0.27 | 91 | 1007.9 |
| 20260507020619 | 46 | 62 | 2.0 | 2.0 | 0.00 | 0.27 | 0.27 | 91 | 1007.6 |
| 20260507020114 | 46 | 66 | 2.0 | 3.0 | 0.00 | 0.27 | 0.27 | 90 | 1007.4 |
| 20260507020056 | 47 | 128 | 0.0 | 0.0 | 0.00 | 0.26 | 0.26 | 89 | 1006.4 |
| 20260507015613 | 46 | 65 | 2.0 | 2.0 | 0.00 | 0.27 | 0.27 | 90 | 1007.9 |